CYGFM05

Last updated on Wed Oct 29 2025 00:02:22 GMT+0000 (Coordinated Universal Time)

1 41884U 16078A 25301.55151317 .00026835 00000+0 54710-3 0 9999 2 41884 34.9609 341.8039 0009649 129.4987 230.6589 15.45193653492767
UTC large
Height (km)
Speed (km/s)
/
Latitude / Longitude
Inclination (degrees)
Orbital Period (minutes)
Azimuth
Elevation
Range (km)
Doppler Factor

Next 0 passes for location: London (51.5072 / 0.1276)

Sorry there are no passes over London.